Regional Weather Roundup
Issued by NWS

Home | Current Version | Previous Version | Text Only | Print | Product List | Glossary On
Versions: 1 2 3 4 5 6 7 8 9 10 11 12 13 14 15 16 17 18 19 20 21 22 23 24 25 26 27 28 29 30 31 32 33 34 35 36 37 38 39 40 41 42 43 44 45 46 47 48 49 50
000
ASUS42 KTBW 190016
RWRFL
FLORIDA REGIONAL WEATHER ROUNDUP
NATIONAL WEATHER SERVICE TAMPA BAY RUSKIN FL
800 PM EDT SAT APR 18 2015

NOTE: "FAIR" INDICATES FEW OR NO CLOUDS BELOW 12,000 FEET WITH NO
SIGNIFICANT WEATHER AND/OR OBSTRUCTIONS TO VISIBILITY.


FLZ001>010-012>015-112-114-115-190100-
PANHANDLE FLORIDA

CITY           SKY/WX    TMP DP  RH WIND       PRES   REMARKS
PENSACOLA      LGT RAIN  73  71  93 S6        29.90R
PENSACOLA NAS  LGT RAIN  74  71  91 CALM      29.90R
MILTON NAS     CLOUDY    73  70  90 S3        29.90R
CRESTVIEW      CLOUDY    74  70  87 CALM      29.92R
DUKE FIELD     FAIR      74  70  88 S1        29.90R
VALPARAISO     MOCLDY    74  71  92 N1        29.90R
MARY ESTHER    LGT RAIN  74  66  76 SW2       29.90
TRI COUNTY     FAIR      73  71  93 CALM      29.91S
PANAMA CITY    MOCLDY    74  71  91 E3        29.88S
TYNDALL AFB    CLOUDY    74  72  91 CALM      29.89F
APALACHICOLA   LGT RAIN  79  74  84 S6        29.90F

STATION/POSITION SKY/WX   TEMP    WIND        PRES    WAVE   SWELL
                          AIR SEA DIR/SP/G            HT/PER HT/PER
                          (F)     (DEG/KT/KT) (MB)    (FT/S) (FT/S)
30.1N   87.6W              74 73  190/ 12/ 16 1011.1R   2/ 5   2/ 6
29.2N   88.2W              74 75  180/ 12/ 14 1012.5R   2/ 4   2/ 6
28.8N   86.0W              77 77  160/  8/  8 1012.8F   2/ 5   2/ 5
PANAMA CITY BEAC           74 75  140/ 10/ 10 1011.7F
CAPE SAN BLAS    NOT AVBL
TOWER C                    75     190/ 10/ 11 1012.8F
28.5N   84.5W              77 77  200/  2/  2 1013.8R   1/ 6   2/ 6

$$
FLZ011-016>038-118-127-128-134-139-239-190100-
NORTH FLORIDA

CITY           SKY/WX    TMP DP  RH WIND       PRES   REMARKS
MARIANNA       CLOUDY    74  71  91 SW6       29.91S
TALLAHASSEE    CLOUDY    79  72  79 CALM      29.91S
PERRY          CLOUDY    75  73  91 S5        29.94R
CROSS CITY       N/A     78  72  81 W6        29.94R
LAKE CITY      FAIR      73  70  88 CALM      29.93R
GAINESVILLE    MOCLDY    78  68  71 W8        29.93R
MAYPORT NAS    LGT RAIN  68  68 100 NE6       29.95R
JACKSONVILLE   LGT RAIN  71  69  93 NE8       29.93S
JAX NAS        LGT RAIN  77  70  79 E5        29.94R
JAX CRAIG      LGT RAIN  71  68  90 E5        29.94S
JAX CECIL      CLEAR     72  68  88 N5        29.94R
ST AUGUSTINE   CLOUDY    72  70  93 NE5       29.95R FOG

STATION/POSITION SKY/WX   TEMP    WIND        PRES    WAVE   SWELL
                          AIR SEA DIR/SP/G            HT/PER HT/PER
                          (F)     (DEG/KT/KT) (MB)    (FT/S) (FT/S)
SHELL POINT                77     210/  9/ 11   N/A
KEATON BEACH               76     240/  9/ 11 1013.7R
CEDAR KEY                  77     260/  6/  8 1014.4R
FERNANDINA                 70 73  330/ 11/ 15 1012.9R
30.7N   81.3W                 71                N/A     2/ 8
MAYPORT                    70 71   60/  6/  7 1013.6R
31.4N   80.9W              70 68  130/  8/  8 1013.5R   2/10   2/10
ST AUGUSTINE               72 73  200/  4/  5 1014.7R

$$
FLZ040-043>046-052-053-057-058-063-144-190100-
INTERIOR CENTRAL FLORIDA

CITY           SKY/WX    TMP DP  RH WIND       PRES   REMARKS
OCALA          MOCLDY    79  68  69 W5        29.95R
THE VILLAGES     N/A     79  79 100 W6        29.85R
LEESBURG       PTCLDY    80  70  71 NW8       29.95R
SANFORD        MOCLDY    82  68  62 NW6       29.93R
ORLANDO EXEC   MOCLDY    84  68  58 NW8       29.93R
ORLANDO INTL   MOCLDY    84  70  62 NW8       29.93R
KISSIMMEE      MOCLDY    84  72  65 NW7       29.93R
WINTER HAVEN   CLOUDY    82  71  69 W9        29.95R
LAKELAND       MOCLDY    81  72  74 W8        29.95R
BARTOW         FAIR      81  68  65 W7        29.96R
OKEECHOBEE     MOCLDY    79  70  73 SW8       29.94R

$$
FLZ041-047-054-059-064-141-147-190100-
EAST CENTRAL FLORIDA

CITY           SKY/WX    TMP DP  RH WIND       PRES   REMARKS
DAYTONA BEACH  MOCLDY    78  73  84 E3        29.94R
DELAND           N/A    N/A N/A N/A W3        29.94R
NEW SMYRNA BEA PTCLDY    77  73  88 SE7       29.94R
JFK SPACE CTR  CLOUDY    80  72  77 SE6       29.92R
TITUSVILLE     MOCLDY    81  79  94 E8        29.93R
CAPE CANAVERAL CLOUDY    79  74  84 SE6       29.92R
PATRICK AFB    MOCLDY    80  75  85 SE9       29.92R
MELBOURNE      PTCLDY    82  74  76 E9        29.92R
VERO BEACH     TSTM      75  68  78 E13G31    29.93R
FT PIERCE      LGT RAIN  80  73  79 NE6       29.93R
STUART         MOCLDY    81  70  69 SE9       29.92S

STATION/POSITION SKY/WX   TEMP    WIND        PRES    WAVE   SWELL
                          AIR SEA DIR/SP/G            HT/PER HT/PER
                          (F)     (DEG/KT/KT) (MB)    (FT/S) (FT/S)
28.5N   80.2W              80 80  110/ 10/ 12 1013.4R
28.9N   78.5W              78 79   50/  6/  6 1013.8F
TRIDENT PIER               80 79  120/  4/  7 1013.4R
28.4N   80.5W                 79                N/A     2/ 9
27.5N   80.2W                 79                N/A     3/11   2/11

$$
FLZ050-056-061-142-242-148-248-149-249-151-251-155-255-
160-260-190100-
WEST CENTRAL FLORIDA

CITY           SKY/WX    TMP DP  RH WIND       PRES   REMARKS
CRYSTAL RIVER  FAIR      77  70  78 W5        29.95R
INVERNESS      FAIR     N/A N/A N/A CALM      29.96R
BROOKSVILLE    CLOUDY    77  72  84 W8        29.96R
CLEARWATER     CLOUDY    79  72  79 W8        29.95R
TAMPA INTL     CLOUDY    80  71  74 W7        29.95R
TAMPA EXEC     CLOUDY    81  70  69 CALM      29.95R
PLANT CITY     CLOUDY    81  73  78 W5        29.97R
MACDILL AFB    CLOUDY    80  75  84 W5        29.95R
PETER O KNIGHT CLOUDY    82  72  69 W5        29.95R
ST PETERSBURG  CLOUDY    80  73  79 W8        29.93R
SARASOTA       MOCLDY    79  73  82 W7        29.94R
VENICE         FAIR      79  75  89 W6        29.96R

STATION/POSITION SKY/WX   TEMP    WIND        PRES    WAVE   SWELL
                          AIR SEA DIR/SP/G            HT/PER HT/PER
                          (F)     (DEG/KT/KT) (MB)    (FT/S) (FT/S)
CEDAR KEY                  77     260/  6/  8 1014.4R
28.5N   84.5W              77 77  200/  2/  2 1013.8R   1/ 6   2/ 6
27.3N   84.2W                 79                N/A     2/ 8
CLEARWATER BEACH           79 82  230/  9/ 11 1013.9R
MIDDLE TAMPA BAY           79     260/  8/ 10 1013.9R
VENICE                     79 84  280/  7/  8 1013.9R

$$
FLZ066-069-070-075>078-162-262-165-265-190100-
SOUTHWEST FLORIDA AND KEYS

CITY           SKY/WX    TMP DP  RH WIND       PRES   REMARKS
PUNTA GORDA    MOCLDY    80  69  69 W7        29.95R
FT MYERS       MOCLDY    81  67  62 W9        29.93R
SOUTHWEST INTL MOCLDY    79  68  69 SW6       29.94R
NAPLES         PTCLDY    80  71  74 SW3       29.94R
MARCO ISLAND   CLOUDY    81  70  69 W6        29.94R
IMMOKALEE      CLEAR    N/A N/A N/A CALM      29.94R
MARATHON       CLEAR     81  72  74 E3        29.93R
KEY WEST NAS   PTCLDY    80  71  74 SE6       29.94R
KEY WEST INTL  CLEAR     82  73  74 SE6       29.94R

STATION/POSITION SKY/WX   TEMP    WIND        PRES    WAVE   SWELL
                          AIR SEA DIR/SP/G            HT/PER HT/PER
                          (F)     (DEG/KT/KT) (MB)    (FT/S) (FT/S)
VENICE                     79 84  280/  7/  8 1013.9R
NAPLES                     81 85  280/  5/  6 1013.5R
26.0N   85.6W              80 80  130/  8/ 10 1013.1R   2/ 5   2/ 5
DRY TORTUGAS               80     100/  5/  5 1013.1F
NW FL BAY                  83     190/  4/  7 1013.6
SAND KEY                   80     130/  5/  6 1013.9R
SOMBRERO KEY               80     100/  5/  6 1014.6R
LONG KEY                   80 85  130/  3/  3 1014.6R
MOLASSES REEF              79 79  200/  3/  4 1014.0R

$$
FLZ067-068-071>074-168-172>174-190100-
SOUTHEAST FLORIDA

CITY           SKY/WX    TMP DP  RH WIND       PRES   REMARKS
W PALM BEACH   MOCLDY    81  71  71 S12       29.93S
FT LAUDER-EXEC MOCLDY    83  71  67 S5        29.92R
FT LAUDERDALE  MOCLDY    82  70  66 S9        29.92R
POMPANO BEACH  MOCLDY    81  70  69 S8        29.92R
PEMBROKE PINES MOCLDY    83  69  62 S6        29.94R
OPA LOCKA      MOCLDY    83  70  64 S10       29.93R
MIAMI          MOCLDY    83  70  64 S7        29.93R
WEST KENDALL   PTCLDY    84  67  56 S7        29.94R
HOMESTEAD      PTCLDY    80  71  73 S3        29.94R

STATION/POSITION SKY/WX   TEMP    WIND        PRES    WAVE   SWELL
                          AIR SEA DIR/SP/G            HT/PER HT/PER
                          (F)     (DEG/KT/KT) (MB)    (FT/S) (FT/S)
PORT EVERGLADES            81     160/ 10/ 13 1012.9S
VIRGINIA KEY               81 84  170/  9/ 12 1013.0R
LAKE WORTH                 80 81  160/ 13/ 16 1012.9R
SETTLEMENT POINT           80     180/  7/  8 1014.5S

$$



USA.gov is the U.S. government's official web portal to all federal, state and local government web resources and services.